Weather Roundup
Issued by NWS Corpus Christi, TX

Home | Current Version | Previous Version | Text Only | Print | Product List | Glossary On
Versions: 1 2 3 4 5 6 7 8 9 10 11 12 13 14 15 16 17 18 19 20 21 22 23 24 25 26 27 28 29 30 31 32 33 34 35 36 37 38 39 40 41 42 43 44 45 46 47 48 49 50
849
ASUS44 KCRP 280710
HRRCRP

SOUTH TEXAS REGIONAL WEATHER ROUNDUP
NATIONAL WEATHER SERVICE CORPUS CHRISTI TX
200 AM CDT TUE MAR 28 2017


TXZ229>244-280800-
...CORPUS CHRISTI AREA OBSERVATIONS...

CITY           SKY/WX    TMP DP  RH WIND       PRES   REMARKS
CORPUS CHRISTI CLOUDY    74  73  97 SE18      29.81F
NAS CORPUS CHR CLOUDY   N/A N/A N/A SE15        N/A  HAZE
ROCKPORT       CLOUDY    74  72  93 SE13G21   29.81F FOG
KINGSVILLE NAS CLOUDY    73  73 100 SE16      29.80F
ALICE          CLOUDY    72  71  97 S10       29.80F
ORANGE GROVE   CLOUDY    73  73 100 S15       29.81F
FALFURRIAS     CLOUDY    72  71  96 SE9       29.80F
$$

...VICTORIA AREA OBSERVATIONS...

CITY           SKY/WX    TMP DP  RH WIND       PRES   REMARKS
VICTORIA       CLOUDY    71  69  93 E6        29.84F FOG
BEEVILLE       CLOUDY   N/A N/A N/A SE10      29.82S
PLEASANTON     CLOUDY    70  69  95 E3        29.83S
SAN ANTONIO    CLOUDY    71  66  84 SE10      29.85F
$$

...LAREDO AREA OBSERVATIONS...

CITY           SKY/WX    TMP DP  RH WIND       PRES   REMARKS
LAREDO         CLEAR     73  69  87 SE10      29.77F
COTULLA        PTCLDY    71  68  90 SE7       29.79F
DEL RIO        MOCLDY    71  67  87 E8        29.77F
MCALLEN        CLOUDY    77  72  84 S13       29.80F
HEBBRONVILLE   CLOUDY    71  68  92 S12       29.81F
$$

...OTHER TEXAS OBSERVATIONS...

CITY           SKY/WX    TMP DP  RH WIND       PRES   REMARKS
BROWNSVILLE    CLOUDY    75  73  93 SE12      29.82F
HOUSTON        MOCLDY    68  67  96 SE3       29.88S
COL. STATION   MOCLDY    67  66  97 E6        29.87S
AUSTIN         CLOUDY    71  68  90 S9        29.85S
WACO           CLOUDY    65  59  81 E7        29.87S
FORT WORTH     CLEAR     61  55  81 E5        29.86F
WICHITA FALLS  CLEAR     52  47  83 NE8       29.88F
LUBBOCK        CLOUDY    58  44  60 SE17      29.84S
EL PASO        PTCLDY    67  27  22 NW6       29.80F
$$

...MARINE OBSERVATIONS...

STATION/POSITION TIME  SKY/WX   TEMP    WIND        PRES    VSBY  WAVE   SWELL
                                AIR SEA DIR/SP/G                  HT/PER HT/PER
                 (UTC)          (F)     (DEG/KT/KT) (MB)    (MI)  (FT/S) (FT/S)
PORT ARANSAS     0700            72 74  140/ 13/ 14 1009.7F
BUOY 90 E PORT A 0650            74 73  150/ 12/ 16 1011.2F         5/ 7   3/ 7
BUOY 45 SE BAFFI 0650            74     160/ 14/ 16 1009.4F         5/ 7   3/ 7
BUOY 200 E PT IS 0650            76 77  140/ 16/ 19 1011.5F         6/ 8   3/ 8
BUOY 15 E GALVES 0650            73 73  170/ 12/ 14 1012.0F         3/ 7   2/ 7
$$




USA.gov is the U.S. government's official web portal to all federal, state and local government web resources and services.